Location: Newark
(44.3681°N, 100.3364°W)
Time: 14:18:32
(UTC+00:00)

S-56A Canister/Altair - Pass Details

Date: 28 February 2020
Orbit: 634 x 2498 km, 38.9° (Epoch: 29 March)

Event Time Altitude Azimuth Distance (km) Brightness Sun altitude
Rises 15:53:34 0° 232° (SW) 5,133 11.6 23.7°
Reaches altitude 10° 15:56:40 10° 228° (SW) 4,356 11.4 24.2°
Maximum altitude 16:08:48 55° 155° (SSE) 2,707 11.4 25.8°
Drops below altitude 10° 16:23:18 10° 84° (E) 5,150 12.3 27.6°
Sets 16:27:19 0° 81° (E) 6,099 12.5 28.1°
